CubeBel-2 (EU11S)
1 57175U 23091K   24207.81889538  .00008291  00000-0  52727-3 0  9991
2 57175  97.6089 259.4769 0014656   7.8895 352.2561 15.08979971 59315
VERONIKA
1 58261U 23174F   24207.85481018  .00019764  00000-0  84409-3 0  9994
2 58261  97.4581 282.3212 0012946 109.4804 250.7832 15.22839536 39593
KAFASAT
1 58317U 23174BP  24207.84737050  .00026033  00000-0  99293-3 0  9999
2 58317  97.4526 283.0611 0011248  88.9225 271.3302 15.26600014 39656
ENSO
1 58470U 23185J   24207.87558927  .00018013  00000-0  72815-3 0  9998
2 58470  97.4237 274.2220 0013425 140.5383 219.6835 15.24710353 36033
EIRSAT-1
1 58472U 23185L   24207.83275623  .00019466  00000-0  76978-3 0  9992
2 58472  97.4231 274.2560 0013031 141.5711 218.6458 15.25435223 36036
SO-121
1 58567U 23174CY  24207.20435427  .00066297  00000-0  19706-2 0  9995
2 58567  97.4508 283.1622 0010709 102.4956 257.7485 15.34458460 39600
SONATE-2
1 59112U 24043Q   24207.30973008  .00013694  00000-0  64418-3 0  9995
2 59112  97.4829 330.7682 0015269 158.2214 201.9673 15.19578526 21598
KASHIWA
1 59508U 98067WH  24207.81655308  .00453602  00000-0  16286-2 0  9993
2 59508  51.6239 112.5381 0007341 153.2246 206.9139 15.86995018 16586
MESAT1
1 60209U 24125G   24207.55202574  .00012802  00000-0  59862-3 0  9992
2 60209  97.3201  59.7972 0026567 186.1951 173.8959 15.19582511  3246
GRBBeta
1 60236U 24128B   24207.82831710  .00002768  00000-0  25662-3 0  9996
2 60236  61.9945 106.3556 0010477 291.6020  68.3952 14.96887996  2392
ROBUSTA-3A
1 60243U 24128J   24207.84020943  .00006185  00000-0  56646-3 0  9997
2 60243  61.9921 106.4024 0012720 263.1658  96.7983 14.95861715  2398
CatSat
1 60246U 24125J   24207.82742563  .00011056  00000-0  50742-3 0  9998
2 60246  97.3022  61.4028 0053945 139.8945 220.6292 15.19254673  1400
